Regional Weather Roundup
Issued by NWS

Home | Current Version | Previous Version | Text Only | Print | Product List | Glossary Off
Versions: 1 2 3 4 5 6 7 8 9 10 11 12 13 14 15 16 17 18 19 20 21 22 23 24 25 26 27 28 29 30 31 32 33 34 35 36 37 38 39 40 41 42 43 44 45 46 47 48 49 50

000
ASUS44 KMEG 021510
RWRTN
TENNESSEE HOURLY STATE WEATHER ROUNDUP
NATIONAL WEATHER SERVICE MEMPHIS TN
1000 AM CDT WED SEP 02 2015

TNZ002-004-019-021-049-052-054-088>092-021600-
WEST TENNESSEE

CITY           SKY/WX    TMP DP  RH WIND       PRES   REMARKS
MEMPHIS INTL   MOSUNNY   85  69  58 VRB3      30.11S
NWS MEMPHIS      N/A     83 N/A N/A MISG        N/A
JACKSON        PTSUNNY   79  73  82 CALM      30.12F
DYERSBURG      SUNNY     82  72  69 CALM      30.13S
UNION CITY     SUNNY     82  73  74 CALM      30.11S
PARIS          SUNNY     82  68  61 CALM      30.13F
LEXINGTON      SUNNY     82  72  69 CALM      30.12S
$$

TNZ008-025-027-028-033-062-065-066-021600-
NORTH MIDDLE TENNESSEE

CITY           SKY/WX    TMP DP  RH WIND       PRES   REMARKS
NASHVILLE      CLOUDY    83  68  60 CALM      30.14F
CLARKSVILLE    SUNNY     81  70  69 SE3       30.14S
SMYRNA         MOSUNNY   83  72  69 CALM      30.15S
COOKEVILLE     SUNNY     82  72  69 CALM      30.15S
CROSSVILLE     MOSUNNY   81  66  60 CALM      30.20F
$$

TNZ061-075-076-078-094-096-097-021600-
SOUTH MIDDLE TENNESSEE

CITY           SKY/WX    TMP DP  RH WIND       PRES   REMARKS
FAYETTEVILLE   SUNNY     79  70  73 E3        30.14S
TULLAHOMA      MOSUNNY   79  66  65 CALM      30.17R
WINCHESTER     SUNNY     79  72  78 CALM      30.15S
MCMINNVILLE    SUNNY     81  75  83 CALM      30.16S
COLUMBIA       SUNNY     82  75  78 CALM      30.12F
SHELBYVILLE    SUNNY     81  73  78 CALM      30.15S
$$

TNZ017-018-042-046-047-021600-
NORTHEAST TENNESSEE

CITY           SKY/WX    TMP DP  RH WIND       PRES   REMARKS
TRI CITIES     MOSUNNY   79  67  66 CALM      30.18S
ELIZABETHTON   SUNNY     79  66  65 CALM      30.18F
$$

TNZ012-013-036-069-073-074-021600-
CENTRAL EAST TENNESSEE

CITY           SKY/WX    TMP DP  RH WIND       PRES   REMARKS
KNOXVILLE      PTSUNNY   81  70  69 CALM      30.14F
OAK RIDGE      MOSUNNY   81  69  67 E5        30.16F
GATLINBURG     SUNNY     84  66  54 CALM      30.14S
MORRISTOWN     SUNNY     82  70  65 E3          N/A
$$

TNZ083-085-099-021600-
SOUTHEAST TENNESSEE

CITY           SKY/WX    TMP DP  RH WIND       PRES   REMARKS
CHATTANOOGA    PTSUNNY   82  70  66 VRB6      30.14S
$$

SKY/WX REPORTED AS FAIR MEANS FEW OR NO CLOUDS BELOW
12 THOUSAND FEET.




USA.gov is the U.S. government's official web portal to all federal, state and local government web resources and services.